This is the latest recevied weather packets stored in our database for station/object KM4KBD. If no packets are shown the sender has not sent any weather packets the latest 10 day(s).
| Time | Temp. | Humidity | Pressure | Rain* | Wind** | Luminosity | Snow |
|---|---|---|---|---|---|---|---|
| 1777371630 | 15.56° C | 99% | 1019.3 hPa | 0 mm | - | 0 W/m² | - |
| 1777371327 | 15.56° C | 99% | 1019.2 hPa | 0 mm | - | 0 W/m² | - |
| 1777371023 | 15.56° C | 99% | 1018.9 hPa | 0 mm | - | 0 W/m² | - |
| 1777370719 | 15.56° C | 99% | 1019 hPa | 0 mm | - | 0 W/m² | - |
| 1777370415 | 15.56° C | 99% | 1018.9 hPa | 0 mm | - | 0 W/m² | - |
| 1777370111 | 15.56° C | 99% | 1018.9 hPa | 0 mm | - | 0 W/m² | - |
| 1777369809 | 15° C | 99% | 1018.8 hPa | 0 mm | - | 0 W/m² | - |
| 1777369508 | 15° C | 99% | 1018.6 hPa | 0 mm | - | 0 W/m² | - |
| 1777369204 | 15° C | 99% | 1018.6 hPa | 0 mm | - | 0 W/m² | - |
| 1777368903 | 15° C | 99% | 1018.6 hPa | 0 mm | - | 0 W/m² | - |
| 1777368603 | 15° C | 99% | 1018.3 hPa | 0 mm | - | 0 W/m² | - |
| 1777368298 | 15° C | 99% | 1018.3 hPa | 0 mm | - | 0 W/m² | - |
| 1777367996 | 15° C | 99% | 1018.1 hPa | 0 mm | - | 0 W/m² | - |
| 1777366479 | 15° C | 99% | 1017.3 hPa | 3.05 mm | - | 0 W/m² | - |
| 1777365871 | 15° C | 99% | 1019.2 hPa | 4.83 mm | - | 0 W/m² | - |
| 1777365567 | 15° C | 99% | 1019.6 hPa | 3.05 mm | - | 0 W/m² | - |
| 1777365265 | 15° C | 99% | 1019.3 hPa | 4.32 mm | - | 0 W/m² | - |
| 1777364964 | 15° C | 99% | 1019.6 hPa | 6.6 mm | - | 0 W/m² | - |
| 1777364660 | 15° C | 99% | 1019.9 hPa | 7.87 mm | - | 0 W/m² | - |
| 1777364356 | 15° C | 99% | 1020.3 hPa | 7.11 mm | - | 0 W/m² | - |
| 1777364053 | 15° C | 99% | 1020.5 hPa | 7.87 mm | - | 0 W/m² | - |
| 1777363749 | 15° C | 99% | 1020.2 hPa | 6.1 mm | - | 0 W/m² | - |
| 1777363446 | 15° C | 99% | 1020 hPa | 4.32 mm | - | 0 W/m² | - |
| 1777363143 | 15° C | 99% | 1020 hPa | 3.05 mm | - | 0 W/m² | - |
| 1777362538 | 15° C | 99% | 1020.3 hPa | 4.83 mm | - | 0 W/m² | - |
* Rain latest hour (hover to see other rain measurements)
** Current wind speed in m/s (hover to see current wind gust speed)